Tracking 27188 objects as of 1-Apr-2023
HD Live streaming from Space Station
objects crossing your sky now

STARLINK-1720

Track STARLINK-1720 now!
10-day predictions
STARLINK-1720 is classified as:


NORAD ID: 46675
Int'l Code: 2020-073F
Perigee: 553.8 km
Apogee: 555.6 km
Inclination: 53.1 °
Period: 95.6 minutes
Semi major axis: 6925 km
RCS: Unknown
Launch date: October 18, 2020
Source: United States (US)
Launch site: AIR FORCE EASTERN TEST RANGE (AFETR)
Your satellite tracking list
Your tracking list is empty




NASA's NSSDC Master Catalog

Two Line Element Set (TLE):
1 46675U 20073F   23091.08710268  .00001657  00000-0  13050-3 0  9998
2 46675  53.0558  21.2047 0001246 100.0385 260.0745 15.06286737135796
Source of the keplerian elements: AFSPC